ESEO (43792 NORAD) Tracking and Keplerian Element Data

This shows tracking and keplerian element data for the satellite.

Feedback or suggestion? Click here.




ElementValue
Catalog43792
NameESEO
Epoch Orbit639
Epoch Day17.18019704
Epoch Year2019
RAAN90.9243
Inclination97.7625
Eccentricity0.0014585
Argument of Perigee116.8124
Mean Anonmoly243.4591
Mean Motion14.95460443
Decay Rate-4.09E-06
L11 43792U 18099AL 19017.18019704 -.00000409 00000-0 -31708-4 0 9998
L22 43792 97.7625 90.9243 0014585 116.8124 243.4591 14.95460443 6392

Live tracking and technical data element details for ESEO (NORAD 43792). ESEO can be tracked NOW for your location showing map with azimuth and elevation plus other details from your city location.

Track the satellite on the map from your city or location and see movement details for azimuth, elevation, latitude, longitude, range, height, and movement on the map or in text.







IsCatalogInMostPopularTable: catalog: 43792, numindb: 21
Update: records affected: 1



GetName: 43792 ESEO

Hit Count: updated at: Wed, 23 Jan 2019 02:41:32 GMT